TimeCDT,TemperatureF,Dew PointF,Humidity,Sea Level PressureIn,VisibilityMPH,Wind Direction,Wind SpeedMPH,Gust SpeedMPH,PrecipitationIn,Events,Conditions,WindDirDegrees,DateUTC
12:54 AM,57.9,50.0,75,30.07,10.0,South,9.2,-,N/A,,Clear,180,2013-04-07 05:54:00
1:54 AM,55.0,50.0,83,30.06,10.0,South,4.6,-,N/A,,Clear,180,2013-04-07 06:54:00
2:54 AM,53.1,48.9,86,30.05,10.0,South,3.5,-,N/A,,Clear,170,2013-04-07 07:54:00
3:54 AM,52.0,48.9,89,30.05,10.0,SSE,4.6,-,N/A,,Clear,160,2013-04-07 08:54:00
4:54 AM,52.0,50.0,93,30.05,10.0,Calm,Calm,-,N/A,,Partly Cloudy,0,2013-04-07 09:54:00
5:54 AM,48.9,46.9,93,30.06,6.0,Calm,Calm,-,N/A,,Mostly Cloudy,0,2013-04-07 10:54:00
6:54 AM,51.1,48.9,92,30.08,9.0,Calm,Calm,-,N/A,,Overcast,0,2013-04-07 11:54:00
7:54 AM,55.0,53.1,93,30.10,8.0,SSE,6.9,-,N/A,,Overcast,150,2013-04-07 12:54:00
8:54 AM,59.0,54.0,83,30.10,10.0,SSE,9.2,-,N/A,,Overcast,160,2013-04-07 13:54:00
9:54 AM,63.0,55.0,75,30.10,10.0,South,10.4,-,N/A,,Overcast,170,2013-04-07 14:54:00
10:54 AM,68.0,54.0,61,30.09,10.0,SSW,11.5,-,N/A,,Overcast,200,2013-04-07 15:54:00
11:54 AM,71.1,53.1,53,30.09,10.0,SW,9.2,-,N/A,,Mostly Cloudy,220,2013-04-07 16:54:00
12:54 PM,70.0,53.1,55,30.06,10.0,South,15.0,-,N/A,,Mostly Cloudy,190,2013-04-07 17:54:00
1:54 PM,72.0,52.0,49,30.04,10.0,South,9.2,-,N/A,,Mostly Cloudy,190,2013-04-07 18:54:00
2:54 PM,73.9,53.1,48,30.01,10.0,SW,9.2,16.1,N/A,,Mostly Cloudy,220,2013-04-07 19:54:00
3:54 PM,73.0,52.0,48,30.00,10.0,South,10.4,-,N/A,,Mostly Cloudy,180,2013-04-07 20:54:00
4:54 PM,73.9,50.0,43,29.99,10.0,South,10.4,-,N/A,,Mostly Cloudy,180,2013-04-07 21:54:00
5:54 PM,75.0,52.0,44,29.96,10.0,SSE,11.5,-,N/A,,Scattered Clouds,150,2013-04-07 22:54:00
6:54 PM,72.0,52.0,49,29.96,10.0,SSE,10.4,-,N/A,,Partly Cloudy,150,2013-04-07 23:54:00
7:54 PM,64.9,53.1,65,29.96,10.0,SE,8.1,-,N/A,,Clear,140,2013-04-08 00:54:00
8:54 PM,62.1,53.1,72,29.96,10.0,SE,8.1,-,N/A,,Clear,140,2013-04-08 01:54:00
9:54 PM,63.0,54.0,72,29.98,10.0,SSE,10.4,-,N/A,,Clear,150,2013-04-08 02:54:00
10:54 PM,64.9,55.0,70,29.99,10.0,South,12.7,-,N/A,,Clear,170,2013-04-08 03:54:00
11:54 PM,64.0,55.0,73,29.99,10.0,SSE,9.2,-,N/A,,Clear,160,2013-04-08 04:54:00